STARLINK-11157, 60122

Orbit data source: Space-Track

STARLINK-11157, 60122 is a payload satellite owned by SpaceX/Seattle (US) in LEO that was launched on Mon, 24 Jun 2024 UTC via an FALCON 9 launch vehicle from the Air Force Western Test Range (AFWTR). Payload-class satellites include a variety of spacecraft equipped with specific instruments for various scientific and technological missions. These include communications satellites like Starlink; space stations such as the ISS; scientific satellites like the Hubble; Earth observation satellites from companies like Planet Labs, Umbra, and HawkEye 360; GPS; miniature CubeSats for education and research; and military/defense satellites.

Loading next visibility...
Identifier
60122, 2024-118K
Orbit
LEO
Country
Flag of USUS
Related business
Manufacturer
SpaceX/Seattle
Mission
Operational Commercial Communications
Bus & Motor
STARLINK V2MD, Unknown motor
Mass
960 kg wet, ~910 kg dry
Launch date (UTC)
2024-06-24 (1 year ago)
Launch vehicle
FALCON 9
Launch site
Air Force Western Test Range (AFWTR)
Object type
Payload
Rocket body
Debris
Shape & HBR
Box + 2 Pan, 18.1 m
Radar Cross Section
36.964 m², Large (>1 m²)

Expand to show TLE details & history
Last TLE update: 1 day ago

TLE from 1 day ago
0 STARLINK-11157
1 60122U 24118K   25354.02457417 -.00000571  00000-0  14813-6 0  9993
2 60122  53.1588 253.7845 0001138  75.3753 284.7391 15.69713939 85482
Epoch: 2025-12-20T00:35Z
TLE epoch observation values (Epoch: 2025-12-20T00:35:23.208Z)
Latitude
-0.00001°
Longitude
156.08048°
Altitude
360.435 km
Speed
7.694 km/s
True Right ascension
16h 55m 08s
True Declination
0° 00' 00"
Sunlit
Object was in daylight at epoch
Visualization orbit readout
Latitude
Unknown
Longitude
Unknown
Altitude
Unknown
Speed
Unknown
Apparent Right ascension
Unknown
Apparent Declination
Unknown
Sunlit
N/A
Visualization observer readout
Local Sidereal Time
00:33:12
Azimuth
Unknown
Elevation
Unknown
Doppler factor
Unknown
Orbital elements
Apogee altitude
360.743 km
Perigee altitude
359.21 km
Semi-major axis
6,738.113 km
Eccentricity
0.00011
Inclination
53.1588°
RAAN
253.7845°
Arg. of periapsis
75.3753°
True anomaly
284.72649°
Mean anomaly
284.7391°
Eccentric anomaly
284.73279°
Mean motion
3.92406 °/min
Orbital period
91.74 mins
BSTAR
1.4813e-7
Loading maneuver chart data...
Computing Atmospheric mass density...
Loading historical data...
Loading historical data...
Loading historical data...
Loading historical data...
Loading historical data...
Loading historical data...
Loading historical data...

Documentation

Showing up to 5 results
|